Wind_Speed
22 21 20 19 18 17 15 13 12 12 11 9 7 7 10 11 12 11 9 6 6 7 8 10 10 5 1 4 3 5 7 7 5 5 5 6 7 4 1 1 1 2 2 2 3 2 1 1 1 4 5 2 1 3 6 8 9 8 6 9 11 8 6 10 13 11 5 7 5 5 10 7 4 10 13 8 7 6 4 5 2 2 3 5 6 1 0
22 22 21 20 19 18 17 14 12 12 11 10 8 8 12 13 13 13 12 9 7 7 8 8 7 6 7 6 5 6 8 7 8 9 8 6 6 6 7 5 3 3 4 3 3 2 1 2 2 2 2 2 1 2 6 8 8 6 5 8 11 8 6 9 10 8 5 4 6 6 5 10 12 13 15 12 8 4 3 7 5 4 3 5 5 1 1
23 22 22 21 20 19 18 16 13 13 12 11 9 8 12 15 15 15 15 13 10 10 10 9 9 9 9 7 5 8 7 3 7 10 9 8 6 6 7 8 6 3 3 3 3 3 4 4 5 5 5 5 4 4 5 5 5 4 5 7 9 8 7 6 4 3 2 2 5 6 7 11 14 14 14 14 11 6 1 4 6 6 5 4 3 1 1
24 24 23 22 21 20 20 19 16 14 13 12 10 9 13 17 17 17 16 15 14 15 14 13 13 12 10 8 8 9 6 3 7 10 9 9 5 2 4 7 8 5 3 2 3 3 5 5 5 6 8 9 8 6 7 6 6 6 6 7 8 6 5 6 5 5 5 3 4 3 5 8 11 14 15 14 13 11 6 1 2 3 4 2 1 2 4
25 25 24 23 22 21 21 20 18 16 14 13 11 10 13 17 19 18 17 15 16 18 18 17 17 15 13 11 11 11 6 4 8 11 10 8 6 4 5 6 7 7 4 2 2 2 3 3 5 7 8 10 11 11 11 10 8 8 7 6 5 4 4 5 6 3 4 4 0 2 1 4 8 12 13 14 13 13 9 4 4 2 2 1 4 4 5
25 25 25 24 23 22 21 20 19 17 15 14 13 11 13 17 20 20 19 17 16 18 20 20 19 17 15 13 13 14 9 7 9 11 10 8 7 7 6 5 6 7 5 3 1 1 3 4 5 7 8 10 11 11 11 12 9 6 4 4 3 2 4 5 5 2 1 2 1 2 5 6 5 8 11 13 14 13 11 9 8 4 1 1 5 5 4
23 23 23 23 22 21 19 18 18 17 15 14 13 13 13 15 18 20 22 22 20 18 19 20 20 19 17 14 13 13 9 6 7 10 11 10 10 10 9 6 5 6 6 6 5 4 4 5 4 5 8 7 5 5 5 6 7 5 2 3 3 2 3 4 4 2 3 5 6 4 6 10 9 9 9 10 12 12 9 9 10 7 2 3 4 3 3
20 20 20 20 20 18 16 16 17 16 15 14 13 13 13 15 16 18 21 24 24 22 19 19 20 19 17 14 11 9 5 3 4 9 12 12 12 13 12 8 5 5 5 7 7 6 6 8 5 3 5 4 2 3 5 5 4 2 2 2 3 3 2 3 1 3 7 8 10 9 7 9 10 9 9 9 9 10 6 4 6 6 2 2 4 3 4
17 17 17 17 17 15 14 14 15 15 15 14 13 13 13 14 15 16 19 21 24 25 23 21 20 19 17 15 12 9 6 2 3 9 13 14 14 13 13 11 9 8 8 8 8 7 6 8 7 5 6 6 4 3 4 6 5 3 3 4 2 1 1 3 2 5 10 9 7 8 9 9 11 12 11 12 11 10 7 4 4 3 3 3 4 4 5
16 16 16 16 15 14 13 13 14 15 15 14 13 13 13 14 15 16 18 19 20 23 25 25 23 21 20 18 14 11 8 3 3 7 13 13 13 13 12 12 10 10 11 9 8 7 7 7 8 8 7 7 5 5 5 7 6 3 4 5 1 0 1 0 1 2 9 9 5 8 9 7 9 10 10 10 9 8 7 5 4 1 2 4 4 4 5
15 15 16 16 15 15 13 13 13 14 15 15 14 13 13 13 15 15 17 18 18 19 23 25 25 23 22 21 17 13 11 8 5 7 11 12 13 12 10 11 10 9 9 9 9 9 8 8 9 9 10 10 9 10 10 8 7 6 7 6 3 2 3 4 4 3 4 5 6 9 7 4 5 6 5 5 4 3 4 4 4 3 1 3 6 5 3
16 15 15 15 15 14 13 13 13 13 14 15 15 14 13 13 14 15 17 18 18 17 18 21 23 24 23 22 20 15 12 11 9 8 9 12 13 12 11 10 10 9 9 9 11 11 9 10 11 12 13 14 11 11 11 9 7 6 6 8 7 6 5 6 6 5 3 3 6 6 4 5 8 8 5 4 4 2 2 3 3 3 3 2 6 8 5
16 15 15 15 15 14 13 12 12 13 14 15 15 15 14 13 13 14 16 18 18 18 17 18 20 24 24 23 21 16 12 11 10 9 11 14 13 12 12 11 10 9 8 8 9 10 10 10 10 9 8 8 9 11 9 7 7 7 6 7 7 6 6 6 6 6 4 3 4 4 4 7 10 9 7 5 4 3 2 2 3 2 2 2 4 7 6
16 15 14 14 15 14 14 12 12 13 14 15 16 16 15 13 14 14 15 17 18 17 17 17 18 20 22 22 21 16 11 10 9 9 13 15 14 12 11 10 9 7 6 7 8 9 8 5 5 5 6 6 7 8 8 7 8 10 9 7 6 6 7 8 8 7 5 5 4 4 5 9 10 8 7 7 4 3 3 1 3 2 1 1 3 5 6
17 16 15 14 14 14 14 13 12 13 14 15 16 17 16 14 14 14 15 17 17 16 15 16 17 18 18 18 17 13 10 12 13 14 14 13 12 11 10 8 8 7 6 7 7 7 4 6 5 3 4 5 5 5 7 7 7 8 9 8 7 7 6 6 7 8 8 6 4 5 4 7 11 11 9 8 6 4 2 2 3 2 1 0 1 4 5
18 17 16 15 14 14 14 14 13 13 13 15 16 17 17 15 15 15 15 16 17 15 14 14 15 16 17 15 14 12 12 16 19 17 14 12 10 11 10 7 6 5 6 7 7 7 7 8 5 2 2 5 5 4 5 6 5 4 4 5 7 8 5 4 5 6 9 7 5 6 6 7 11 14 10 8 8 6 4 2 2 3 3 1 1 3 4
20 20 18 18 17 16 15 14 14 13 13 15 17 18 18 17 16 16 16 17 16 14 12 14 14 13 13 14 14 13 14 18 20 17 15 13 11 11 11 9 8 6 7 8 5 7 11 11 6 4 4 4 4 3 3 3 3 4 3 3 6 8 7 6 5 5 8 8 6 7 7 7 11 14 12 9 7 5 4 3 4 5 5 4 4 4 4
22 22 21 21 20 19 18 16 15 14 14 14 16 19 19 18 17 18 17 17 17 13 10 13 15 13 12 13 15 15 14 17 19 19 17 15 13 13 12 11 9 7 7 6 3 7 12 11 6 5 6 7 6 4 4 4 4 4 3 4 5 6 6 6 6 6 7 9 8 6 5 5 10 13 12 10 8 7 6 5 6 7 6 6 7 6 5
23 23 23 23 23 22 20 19 18 16 15 14 15 19 21 19 19 19 19 18 17 12 9 13 15 14 13 14 16 16 15 16 18 19 17 15 15 14 12 11 10 7 5 3 4 8 10 8 5 5 6 8 7 5 4 5 4 3 3 3 5 5 4 5 6 7 7 9 9 6 4 4 7 9 11 12 10 10 9 6 6 8 8 7 7 7 6
23 23 23 24 24 24 23 21 20 19 17 15 15 18 21 21 20 20 20 20 19 13 10 14 17 15 15 16 17 16 17 17 17 18 18 17 16 14 12 12 11 9 7 7 6 8 9 7 6 7 7 7 7 6 6 6 5 5 5 4 5 6 5 4 5 6 7 8 8 5 3 4 5 7 10 12 12 10 8 6 6 8 8 7 7 6 6
23 23 22 23 24 24 24 22 21 20 19 17 16 17 20 22 22 22 22 22 21 15 11 15 18 16 16 18 18 17 18 18 16 18 19 17 16 15 12 11 11 11 11 11 9 10 11 8 7 8 8 7 8 8 7 8 8 7 7 6 7 8 6 4 5 6 7 8 9 6 5 5 5 6 9 11 11 9 7 6 7 7 6 5 5 5 5
23 22 21 22 23 23 23 22 21 21 20 18 17 18 20 22 23 23 23 23 22 18 14 14 17 16 15 18 20 18 19 19 19 19 19 16 15 15 10 9 10 11 11 11 11 11 12 11 9 8 8 9 9 8 8 9 9 8 7 6 6 7 6 5 6 7 7 8 9 8 8 7 6 5 6 7 9 9 8 7 8 8 7 6 6 6 6
22 21 21 21 21 22 21 21 20 20 20 19 18 18 19 21 23 24 24 24 24 20 17 16 17 16 15 19 22 21 21 21 20 19 18 16 15 13 9 9 11 11 10 11 10 10 11 12 10 9 8 9 10 9 9 10 10 9 8 7 5 5 6 5 6 7 7 8 8 7 7 7 6 5 5 6 7 8 8 7 7 7 7 7 8 7 6
22 21 21 21 21 21 20 20 20 20 19 19 19 18 18 20 22 23 23 24 24 22 19 18 17 16 16 21 24 23 23 22 20 19 18 17 15 11 8 10 11 11 10 11 12 11 12 12 11 10 9 8 9 10 9 9 10 10 10 9 8 7 7 7 6 6 6 6 7 7 6 6 6 4 4 5 6 7 7 6 6 5 6 7 8 7 6
22 22 21 21 21 20 20 19 19 19 19 19 19 18 18 19 21 22 23 24 24 22 20 17 14 13 17 23 26 25 24 23 21 19 17 17 15 12 8 9 11 11 11 12 13 13 13 12 11 11 10 8 9 9 8 8 10 11 11 11 10 8 8 7 6 5 5 5 6 8 8 8 7 6 6 6 6 6 6 6 6 6 7 7 8 8 7
22 21 21 20 20 20 20 20 19 18 19 19 18 18 18 20 21 22 22 24 23 22 23 20 14 12 17 23 28 28 26 25 23 20 17 16 16 13 9 9 11 11 11 11 12 13 14 13 13 13 12 10 9 9 8 8 9 10 11 11 9 7 7 6 5 5 5 4 4 7 9 9 8 8 8 7 6 6 6 6 6 7 7 7 8 8 8
21 20 20 20 20 20 20 19 18 18 18 18 17 17 18 19 21 22 22 23 21 19 19 16 13 14 18 21 27 30 29 26 25 23 19 17 16 15 12 12 11 11 12 12 12 13 13 13 13 14 13 12 10 9 9 9 9 10 12 12 11 9 8 6 4 4 4 2 1 5 7 8 9 9 9 8 7 7 6 6 6 6 7 7 6 7 9
20 20 19 19 19 20 19 18 18 18 18 17 16 16 17 19 21 21 21 21 20 19 16 12 10 13 17 20 25 31 30 27 25 24 21 19 18 17 16 15 13 12 13 13 13 14 14 12 12 12 13 13 12 10 10 10 10 11 13 14 13 11 9 6 4 3 3 0 3 5 5 6 7 8 8 9 8 7 6 6 6 6 6 7 6 6 8
20 20 19 18 19 19 18 18 18 18 17 15 14 15 16 17 19 19 18 18 18 18 18 17 13 12 15 17 23 30 32 28 25 25 24 21 19 17 16 16 16 16 15 15 15 15 15 13 13 13 13 14 14 12 12 12 12 12 12 13 13 12 9 6 5 4 2 1 3 5 6 7 6 5 6 7 7 6 6 6 6 6 6 6 6 7 7
20 19 18 18 18 18 17 18 18 17 15 13 13 13 14 15 16 16 17 17 16 16 17 18 16 14 13 15 19 27 32 30 27 26 25 22 19 17 15 14 14 16 17 17 16 15 14 14 14 14 15 16 15 14 13 14 14 13 12 12 13 13 10 7 6 5 3 2 1 3 5 6 5 4 4 4 5 6 5 5 6 6 6 6 6 7 6
20 18 17 17 17 17 17 18 17 15 13 12 11 12 12 13 13 14 14 15 15 15 15 16 15 12 12 13 16 22 28 30 27 25 24 23 20 18 15 14 14 15 15 14 14 14 14 14 14 15 17 17 15 13 12 13 14 15 13 13 13 13 11 9 7 6 5 4 3 2 3 4 5 5 3 3 5 6 5 6 7 7 7 7 7 7 7
18 17 17 17 17 17 17 17 16 14 13 12 12 12 12 11 11 12 12 13 13 14 14 14 13 10 9 11 15 20 24 26 25 21 22 24 24 21 18 17 17 16 14 14 13 13 14 14 15 16 17 17 15 13 13 13 14 13 12 12 12 12 11 10 9 8 7 7 6 5 5 5 4 5 5 5 6 7 7 7 8 8 8 8 8 8 9
17 16 16 16 16 16 17 16 15 14 12 13 14 14 12 11 11 11 11 11 12 13 13 12 12 10 8 10 14 19 21 23 23 21 21 25 26 24 21 20 18 17 16 15 15 14 13 14 16 18 18 17 17 16 15 16 15 13 12 12 12 12 12 11 10 10 10 10 8 6 5 4 4 6 7 7 7 8 8 8 8 8 8 8 8 9 9
16 15 15 15 15 16 16 15 14 13 13 14 15 14 13 12 12 12 11 11 12 13 12 12 12 11 10 11 14 17 19 21 22 22 23 25 27 26 23 21 19 17 17 17 16 14 13 13 16 19 18 17 18 17 17 16 16 16 16 15 14 14 13 13 12 11 11 10 8 6 6 6 7 8 8 8 9 9 8 7 8 8 7 7 7 7 7
15 15 14 14 14 14 14 14 13 13 13 14 13 12 12 12 12 13 12 12 12 12 12 12 12 12 12 13 13 16 19 20 21 24 23 23 24 24 21 20 20 18 16 17 16 13 12 14 17 19 18 17 19 20 18 16 16 16 16 16 16 17 16 14 13 11 10 10 9 8 9 9 9 9 9 9 9 9 8 8 8 8 8 7 7 7 7
14 14 13 13 13 13 13 12 12 12 13 13 11 10 10 10 11 12 13 13 13 12 11 12 13 12 14 14 13 16 19 19 20 24 24 22 22 22 19 20 21 20 18 17 16 14 14 15 17 19 19 20 20 20 18 17 16 16 15 15 16 16 16 15 14 12 10 9 9 10 11 10 10 11 11 11 11 11 10 9 9 9 8 8 8 8 9
13 13 13 13 13 13 12 12 12 12 12 12 10 10 10 10 10 11 12 13 13 12 12 13 13 12 15 16 14 15 18 17 16 20 21 20 21 22 20 18 18 18 18 18 15 14 15 16 17 19 21 21 20 18 16 16 16 15 13 13 13 14 15 15 14 13 11 11 12 13 13 13 13 14 14 13 12 12 11 10 10 10 9 9 10 10 11
12 13 13 13 13 13 13 12 12 12 11 11 11 11 11 10 11 11 12 13 14 14 14 14 13 13 16 17 14 14 16 16 15 18 19 17 19 21 21 20 18 16 16 17 16 16 16 16 17 19 21 21 20 18 16 15 14 12 10 10 11 12 13 13 13 12 12 12 12 12 13 13 13 13 13 12 12 11 11 11 11 10 10 10 11 11 11
12 14 14 14 14 14 13 12 11 11 11 11 11 11 11 11 12 12 12 14 15 15 15 16 14 14 17 17 14 13 13 13 15 18 20 19 18 18 20 22 23 20 18 17 17 18 19 18 19 20 21 21 21 20 19 17 15 12 10 10 11 11 11 11 11 11 11 11 10 10 10 10 10 10 10 10 11 11 11 11 11 11 11 12 12 13 13
13 14 15 14 14 13 11 10 10 10 11 12 12 11 11 11 11 11 12 14 15 16 16 16 15 14 16 16 15 14 14 13 13 15 18 19 20 17 15 18 21 21 19 17 16 18 19 19 20 22 22 21 21 20 19 18 17 14 12 12 11 11 10 9 9 11 11 12 12 12 12 11 10 10 11 11 11 12 12 12 12 12 13 13 14 15 15
14 14 14 14 13 11 10 9 9 9 10 10 11 11 10 10 11 12 12 13 14 15 16 16 15 15 16 16 15 15 15 14 13 12 12 15 18 17 15 15 16 16 16 15 15 17 19 19 21 23 23 20 20 20 20 19 17 15 14 13 13 12 11 10 11 12 12 12 12 12 12 11 12 12 12 13 12 12 12 12 13 14 14 15 16 16 16
14 13 13 12 11 11 11 11 11 11 10 9 9 10 10 10 11 11 12 12 13 14 14 15 15 15 15 15 16 16 15 15 14 12 11 11 13 14 14 14 13 13 14 14 15 17 19 21 23 24 22 19 18 20 20 20 18 16 15 14 14 14 13 12 12 13 12 12 12 12 12 12 12 12 13 13 13 13 13 14 15 16 17 17 17 17 18
14 13 12 11 11 11 11 12 13 12 11 10 10 10 10 11 11 11 11 11 12 12 12 11 12 13 14 16 17 17 18 18 18 16 13 11 10 11 14 16 15 12 12 13 15 17 20 23 23 21 16 15 17 19 19 19 18 17 16 15 14 14 14 13 13 13 13 12 12 12 12 12 12 13 13 14 14 14 15 16 17 17 17 17 17 17 17
13 12 12 12 12 13 12 11 12 12 12 12 12 11 10 10 10 9 9 8 8 9 9 9 9 11 13 15 17 18 19 20 19 15 12 10 9 9 12 16 16 14 13 13 15 17 20 21 19 15 12 12 14 16 18 19 18 17 16 16 15 15 15 14 13 12 12 12 12 13 13 13 13 13 14 14 15 15 16 16 16 16 16 17 17 18 18
13 13 13 14 14 14 13 12 12 12 12 11 11 9 8 6 4 3 4 5 6 7 9 11 11 10 11 14 16 17 18 20 19 15 11 10 9 8 8 10 12 14 14 14 15 17 19 18 14 11 11 13 14 14 16 18 18 17 16 15 15 15 15 14 12 11 11 11 12 12 13 13 13 14 15 15 15 15 15 16 16 17 18 19 20 20 21
13 15 16 16 16 16 14 13 12 9 6 5 5 5 4 3 3 3 5 7 7 8 10 14 15 13 12 14 16 17 17 19 19 17 13 11 9 7 8 9 11 12 14 15 17 18 17 14 10 7 8 11 14 15 16 17 17 17 16 15 14 14 14 13 12 11 11 11 12 12 13 14 14 14 14 15 15 15 16 16 17 19 20 21 21 22 22
14 16 17 17 16 16 15 12 8 5 3 3 3 5 6 8 8 8 9 10 10 10 11 15 17 16 15 16 16 15 16 19 19 18 16 14 11 9 10 12 13 14 15 16 18 15 10 7 7 8 9 10 13 15 16 17 17 16 16 15 14 14 13 12 12 11 11 12 12 13 13 13 13 13 14 14 15 16 17 18 19 20 21 21 21 22 22
15 17 18 18 16 15 13 10 8 7 7 6 6 6 8 9 10 10 10 10 9 8 9 12 15 16 17 19 18 14 15 18 19 18 17 16 13 12 11 12 14 16 17 15 13 9 4 2 5 8 10 11 12 14 15 15 15 16 16 15 14 13 12 11 11 11 11 11 12 12 12 12 12 13 13 14 15 16 18 19 19 20 20 20 21 21 21
15 17 18 17 15 12 11 10 9 8 9 9 8 7 8 9 10 10 9 10 10 9 7 9 13 16 19 21 19 15 15 18 19 18 18 18 17 15 13 12 14 16 15 12 9 6 3 4 6 9 11 13 13 13 13 14 14 14 14 13 12 11 11 10 10 10 10 10 11 11 12 12 12 13 14 15 16 17 18 18 18 18 19 20 20 21 21
15 16 17 16 13 11 10 10 8 8 8 9 9 8 7 8 9 9 9 10 11 11 9 11 15 18 20 22 19 15 14 17 18 17 18 20 19 18 17 17 17 16 12 9 6 4 4 6 8 9 10 12 14 14 14 15 14 14 13 13 12 11 11 10 10 10 10 10 11 11 12 12 13 14 15 16 17 17 17 17 17 17 18 19 19 20 19
16 16 16 15 14 12 11 10 8 8 9 9 8 8 8 7 8 9 10 11 12 12 10 10 13 14 16 19 19 15 14 16 18 18 19 20 20 20 20 19 16 12 9 8 6 4 4 5 7 8 10 11 13 14 15 15 15 15 14 13 12 11 10 10 10 10 10 10 10 11 12 12 13 14 15 15 15 15 15 16 16 17 17 18 19 18 18
15 15 14 14 15 14 12 10 9 9 10 9 8 8 8 8 7 8 10 10 11 11 10 9 10 10 11 15 18 17 15 15 18 20 20 20 20 20 18 15 12 9 8 8 7 5 4 4 6 8 9 10 11 13 15 16 16 15 13 12 11 11 10 9 9 9 9 9 10 11 11 12 12 13 13 13 14 14 15 17 17 17 17 18 17 17 17
Wind_Direction
307 308 308 309 311 312 316 320 322 318 310 303 286 236 215 197 190 210 232 226 207 200 191 194 199 190 324 291 296 331 301 279 265 232 219 231 234 233 247 182 172 233 239 261 287 303 309 276 100 130 145 125 65 314 314 309 316 330 346 1 358 348 337 324 322 333 310 234 214 43 36 40 42 25 25 30 12 346 240 214 237 217 200 204 205 207 270
304 305 305 305 307 307 309 313 316 316 308 298 283 241 214 200 191 208 231 228 208 206 204 201 211 255 287 264 252 306 310 284 250 228 215 226 251 276 271 241 210 211 213 233 269 274 248 230 218 195 185 157 130 308 312 309 311 320 333 349 355 355 343 335 331 335 330 246 230 253 325 19 34 26 15 11 3 347 210 209 220 215 211 213 208 158 170
303 303 302 303 304 304 305 307 309 309 305 296 282 244 216 206 201 208 223 224 216 217 224 230 241 265 271 251 268 307 319 283 226 214 219 237 266 295 268 237 222 197 186 229 249 253 258 254 255 264 261 249 243 260 290 303 304 316 331 332 339 350 351 359 28 68 75 232 265 303 332 359 17 19 11 8 8 11 349 213 204 202 223 230 199 103 207
300 300 300 300 301 302 302 303 304 303 297 290 280 250 219 212 209 212 220 225 227 230 235 241 248 262 265 259 284 307 327 303 219 210 229 243 245 285 252 222 216 208 206 218 193 215 248 253 259 274 277 269 261 262 280 299 300 299 315 322 326 344 6 24 55 103 115 170 248 319 7 353 357 6 7 6 7 5 354 282 179 198 220 243 343 324 239
296 296 296 297 298 298 299 299 299 298 290 281 275 255 227 218 216 216 219 225 230 233 238 243 248 259 266 269 291 303 309 289 238 228 239 238 216 223 227 211 209 204 195 183 153 179 226 239 267 282 284 274 270 273 278 290 299 295 299 308 326 4 22 28 33 56 83 73 349 242 258 325 349 0 4 9 8 360 357 17 29 327 238 302 332 300 233
295 293 293 293 294 295 295 294 293 292 284 275 268 256 238 229 227 222 220 222 226 227 233 240 244 254 260 268 292 297 284 269 259 247 237 219 200 201 198 192 209 213 205 208 212 242 248 262 281 285 287 286 286 288 279 275 282 290 306 314 327 17 21 23 22 16 116 106 44 267 257 270 312 336 349 5 8 2 1 10 10 352 226 229 300 288 209
297 294 293 292 292 292 291 288 286 284 279 272 266 258 248 240 236 232 226 225 227 227 230 236 241 248 252 260 283 292 279 271 263 241 230 219 201 197 197 182 191 219 235 242 238 231 245 266 284 289 296 302 317 341 321 290 279 267 284 352 349 333 41 44 16 20 134 180 198 221 263 258 260 285 308 334 356 5 5 5 9 14 72 194 264 273 179
301 298 296 294 293 291 287 281 279 278 275 271 267 264 257 249 244 241 235 231 232 233 234 237 241 244 244 250 274 288 276 272 248 224 225 223 203 199 213 213 195 206 227 237 240 242 260 276 282 287 302 306 312 345 346 349 356 298 264 356 349 309 52 73 43 109 132 169 196 209 252 259 247 260 275 282 318 349 2 21 34 43 78 187 226 220 159
305 302 300 298 295 291 284 277 273 273 272 269 268 267 264 257 252 247 243 239 237 237 239 241 242 244 241 245 261 262 233 251 275 226 219 222 216 211 223 228 224 233 243 244 248 248 254 271 273 265 275 286 288 304 320 328 347 3 338 338 326 297 97 130 137 129 147 169 204 224 242 246 234 243 260 261 281 323 347 10 41 83 138 192 207 175 148
305 304 303 301 297 292 284 275 270 269 268 267 266 267 268 267 262 254 249 247 243 240 241 242 243 245 245 246 255 251 233 263 312 226 207 210 217 217 221 225 230 242 246 241 240 233 222 237 252 254 257 264 266 265 282 309 317 299 306 323 312 60 22 227 252 164 163 175 218 235 234 237 231 240 256 258 274 319 338 334 334 338 151 177 187 151 138
303 305 306 305 302 296 286 275 266 264 265 265 264 265 269 271 270 265 258 255 251 242 239 240 242 245 247 248 249 250 248 257 271 234 209 202 205 206 210 220 231 243 248 249 249 241 227 230 241 251 261 265 259 252 259 284 300 278 270 280 268 267 310 300 285 271 182 184 213 223 231 246 228 223 232 231 244 308 320 302 299 292 253 174 181 175 152
301 304 307 309 308 303 293 278 265 260 261 262 262 264 267 270 272 270 265 263 261 253 244 242 242 243 247 248 246 248 256 259 257 247 224 208 206 204 207 223 245 264 276 276 262 249 247 257 260 260 265 265 249 238 249 270 283 276 256 254 259 262 272 279 274 264 250 204 188 197 229 230 207 198 186 183 202 226 352 353 329 276 261 198 189 198 192
297 301 306 310 312 311 304 288 270 260 258 259 259 260 263 269 270 268 266 264 264 261 255 250 245 244 247 248 245 246 259 267 261 241 218 212 215 215 218 237 263 279 285 276 255 252 263 269 264 251 239 232 220 223 245 265 256 243 238 248 257 258 260 267 263 250 244 215 187 195 211 194 188 186 174 163 164 142 107 1 319 286 266 227 202 206 203
291 296 302 307 312 314 312 302 282 264 258 258 259 258 259 265 269 269 269 266 264 263 259 255 250 246 247 250 247 244 251 258 243 211 201 210 224 231 234 252 265 264 268 264 257 267 270 240 213 206 198 196 204 219 237 251 241 237 246 254 252 250 260 265 254 237 228 219 199 183 178 179 182 186 180 172 161 125 119 248 280 284 282 226 199 201 200
284 288 293 300 306 309 311 310 298 277 263 258 259 259 257 261 267 270 272 270 268 266 262 258 253 247 247 247 242 234 232 225 208 194 193 203 218 228 234 248 247 236 246 260 266 273 244 179 168 177 188 202 214 218 232 245 244 245 256 256 238 232 255 271 254 226 216 207 159 136 163 199 197 194 192 195 206 217 220 253 257 233 206 209 169 170 178
277 281 284 288 293 298 303 307 305 293 273 262 260 260 258 258 263 269 273 274 273 271 265 259 255 251 247 237 221 212 209 201 193 189 192 201 211 219 224 225 212 211 242 257 261 253 216 183 178 193 191 215 231 233 241 247 234 225 252 257 233 220 232 276 272 228 212 205 172 170 210 224 205 201 207 215 223 232 240 247 222 174 145 142 148 140 149
272 274 278 281 283 287 290 295 299 298 284 268 262 261 259 258 261 266 271 274 277 276 266 258 254 252 244 222 204 198 198 196 194 190 188 194 205 211 213 208 197 210 248 259 249 216 199 187 184 208 211 215 227 231 234 226 182 161 174 208 218 219 230 256 267 242 225 226 220 216 229 227 211 208 210 210 215 218 211 215 200 164 137 122 123 121 137
271 270 273 276 278 280 281 283 286 289 287 275 265 261 260 259 259 264 269 273 278 280 268 257 253 249 239 212 192 188 190 193 196 194 187 187 193 198 200 198 200 221 249 259 231 183 183 181 184 204 214 218 231 246 228 201 173 160 173 193 211 224 239 248 247 242 239 242 245 245 245 229 215 214 211 207 207 207 207 207 187 162 140 122 121 114 117
272 270 270 272 274 276 277 277 277 279 280 276 267 262 261 260 258 261 265 269 274 278 268 255 248 239 231 211 188 183 187 187 188 190 188 184 183 188 194 197 208 228 232 210 180 174 177 179 179 194 213 221 223 225 206 196 192 185 189 207 226 232 241 242 236 231 231 238 246 255 255 233 217 215 215 214 216 220 223 214 175 157 144 131 128 118 111
273 272 270 269 271 272 273 274 273 272 271 271 268 264 263 262 259 259 261 265 269 270 261 253 247 237 226 209 189 183 186 184 182 184 186 182 179 185 197 205 215 225 209 187 183 186 191 197 197 205 221 225 222 223 214 205 203 201 210 233 242 238 236 231 225 218 216 225 233 244 258 241 222 217 218 220 226 234 238 225 188 169 154 141 137 132 128
273 273 271 269 268 270 272 272 271 267 264 265 266 266 266 265 261 258 258 261 265 265 258 254 250 243 227 208 193 186 185 182 181 182 182 182 182 189 206 223 224 218 208 203 203 197 197 201 202 209 221 227 229 229 216 204 202 209 227 246 246 238 233 222 215 213 213 220 227 244 262 242 215 219 227 228 235 242 239 222 208 199 188 174 162 161 164
273 273 272 270 269 269 270 270 267 263 259 261 264 267 268 268 265 260 257 257 260 259 256 256 252 244 229 208 192 182 180 184 187 185 181 180 179 185 208 234 226 215 213 215 215 206 202 205 206 210 217 224 228 224 211 208 208 208 217 229 231 229 227 226 227 223 221 228 241 258 263 238 211 225 237 233 238 239 222 204 205 211 214 201 185 186 189
271 272 271 270 269 269 268 266 263 258 255 258 263 266 269 270 269 265 260 257 257 254 250 253 253 242 224 207 195 182 177 183 187 184 181 180 175 178 201 223 220 218 223 228 230 223 213 212 215 217 216 219 225 223 215 216 217 212 211 216 219 223 225 229 234 226 224 234 239 242 242 226 216 232 239 225 225 222 205 191 194 203 206 195 179 175 177
269 269 269 269 268 266 264 263 259 254 252 256 262 265 267 271 271 269 263 258 258 255 249 249 251 242 222 206 197 187 179 179 179 178 181 184 177 173 194 219 226 234 242 244 244 234 220 214 215 219 220 218 221 223 220 219 217 215 216 219 224 229 225 219 224 224 223 230 226 213 206 204 201 203 206 204 206 202 187 173 171 174 175 173 164 157 158
268 268 267 267 265 263 262 259 256 251 250 255 262 264 266 269 270 269 264 258 256 255 251 245 243 240 224 207 197 190 182 176 173 172 178 187 185 179 192 220 230 239 249 252 246 232 221 214 212 218 224 221 220 225 229 228 223 223 228 229 228 229 224 216 217 217 214 224 224 206 191 187 185 176 172 177 181 181 174 161 152 153 156 155 153 149 146
267 266 266 265 263 260 259 257 252 249 250 255 261 265 266 267 267 264 260 255 255 257 255 247 239 236 225 207 197 194 188 181 179 175 174 185 190 187 197 222 227 228 235 241 238 229 225 224 225 227 229 227 227 232 234 231 228 228 231 228 217 210 212 211 212 219 229 247 232 196 181 181 184 177 169 170 174 177 176 161 148 147 151 151 152 153 151
264 264 263 263 261 257 255 254 250 248 251 256 262 266 266 266 264 259 253 250 251 255 256 250 237 231 225 208 197 195 191 188 189 184 177 182 187 186 196 214 220 219 222 228 233 232 230 231 233 232 230 228 231 232 225 221 224 225 221 218 214 212 214 216 227 251 272 288 196 172 176 189 194 188 181 179 176 173 172 167 160 158 157 154 154 159 164
261 262 262 261 258 255 253 251 248 247 251 256 263 266 265 263 260 255 249 246 246 248 251 250 238 229 224 210 198 195 191 190 194 193 186 184 184 185 196 209 213 217 222 227 234 236 234 233 233 231 228 225 225 222 214 211 217 221 222 222 222 222 224 230 247 276 294 214 134 135 148 172 184 185 182 180 177 174 175 179 180 178 174 169 162 162 167
258 259 259 258 256 254 252 248 246 247 250 256 263 266 265 262 257 251 246 244 246 248 251 253 248 235 226 214 202 196 192 190 192 193 191 190 192 196 203 210 213 218 224 229 236 240 241 240 239 235 229 224 221 220 218 215 216 221 228 230 227 225 230 241 253 260 258 204 143 128 134 147 153 156 163 170 174 176 181 189 191 186 186 189 185 179 179
256 256 256 255 254 253 249 245 244 245 248 255 263 266 263 259 254 247 242 243 247 249 251 254 251 238 226 217 205 199 197 195 196 197 199 202 207 209 207 208 214 220 227 234 240 243 245 246 244 236 226 221 222 225 225 223 222 226 231 231 227 226 231 241 248 247 242 231 171 136 145 157 172 181 179 181 183 181 184 196 200 196 197 203 205 204 204
254 252 252 253 253 250 245 242 241 242 246 252 258 260 259 255 251 247 241 241 245 247 248 253 253 239 221 212 204 200 199 199 203 209 211 209 207 204 199 203 212 217 223 235 244 247 248 249 242 227 217 216 220 225 227 227 228 229 229 227 225 228 232 237 242 244 243 250 261 240 209 203 205 209 216 220 213 210 212 216 218 220 222 221 219 219 219
248 246 247 249 249 246 242 239 237 239 243 246 246 250 253 251 249 248 244 242 243 242 243 248 248 233 214 206 200 196 195 196 199 208 210 205 201 199 200 205 212 214 219 232 244 248 250 246 233 218 212 212 214 217 220 224 228 232 234 231 231 233 233 232 236 242 249 259 268 267 265 265 252 239 246 247 235 229 229 228 227 230 232 231 230 228 226
241 241 243 245 245 242 238 235 234 237 240 240 240 242 244 245 247 248 247 246 244 241 240 241 235 219 200 194 192 190 190 191 192 194 198 198 198 200 202 204 208 213 218 228 237 243 246 238 223 214 212 213 215 218 221 222 226 234 239 239 236 233 231 230 233 240 248 258 266 270 269 270 261 249 249 251 249 245 243 238 235 233 232 232 232 233 234
236 238 240 242 241 239 235 231 232 235 235 235 238 240 241 244 248 247 246 244 243 241 237 234 228 211 190 184 185 185 188 192 192 190 192 194 196 200 204 205 206 211 216 221 226 233 240 234 219 213 215 218 221 225 227 228 232 238 242 242 238 231 228 230 235 242 249 255 260 262 252 246 245 245 246 250 252 250 248 245 243 241 240 240 239 236 235
233 235 237 238 236 232 229 227 228 229 228 230 237 240 241 243 242 239 239 239 238 238 233 228 225 211 191 185 183 181 186 193 195 195 196 197 196 200 206 207 205 208 214 219 221 225 231 230 220 215 218 223 227 229 230 231 236 242 244 243 240 236 236 239 243 248 251 251 247 244 241 242 246 247 246 247 248 246 244 243 243 242 242 244 245 241 234
230 231 231 229 225 222 220 219 219 220 222 227 234 237 238 240 237 232 233 233 233 234 230 224 223 211 194 189 185 181 185 190 193 195 200 203 202 203 207 210 210 211 214 220 226 228 229 228 222 219 221 225 230 234 235 235 239 245 246 244 243 242 243 246 249 250 249 243 238 236 236 237 239 239 239 241 242 244 245 245 244 244 243 243 242 241 240
227 225 221 216 212 210 211 213 215 218 221 224 229 232 234 238 236 230 229 229 229 229 227 222 219 208 198 195 188 184 189 191 189 191 196 201 203 203 201 203 210 213 213 216 223 228 230 231 226 223 226 229 231 234 237 237 240 244 243 237 236 238 241 245 249 248 243 234 230 230 231 229 230 232 235 237 239 242 245 246 246 246 245 242 241 242 245
219 213 208 205 204 206 211 213 216 221 224 225 229 232 232 234 233 227 224 225 225 226 227 224 217 206 202 199 189 185 194 198 197 199 201 201 203 206 205 206 214 218 214 215 220 224 229 235 233 229 231 234 233 232 234 236 238 239 233 224 223 229 236 242 246 245 241 237 235 235 234 234 236 239 240 239 239 240 243 248 252 254 255 255 257 259 260
208 203 200 200 202 207 213 216 218 223 228 231 233 232 231 231 230 226 223 225 225 227 228 225 218 210 208 202 191 188 197 201 205 212 214 211 209 211 210 213 219 221 215 213 218 221 225 232 237 235 234 233 231 231 234 235 236 236 229 220 218 224 232 239 241 239 237 237 237 238 238 238 242 246 246 245 246 249 252 256 261 266 269 271 272 272 271
198 196 196 200 204 208 213 218 222 227 230 232 231 230 229 228 226 224 227 229 228 228 229 226 220 215 212 207 198 196 200 200 201 211 218 217 216 218 219 217 218 219 216 213 218 224 227 231 236 238 237 234 231 230 232 234 237 238 233 226 224 229 234 234 229 226 227 228 231 234 234 233 235 238 241 246 251 255 259 263 266 269 271 271 270 269 267
192 192 196 200 204 206 206 206 212 221 227 230 229 227 227 226 224 225 230 232 232 232 234 231 224 219 218 215 208 203 205 206 205 210 219 217 210 213 225 227 220 219 221 221 222 229 232 233 236 239 239 237 233 231 231 234 237 238 234 231 231 236 237 229 222 225 230 234 237 239 239 238 240 242 244 247 250 253 256 259 260 261 261 261 261 261 260
188 191 196 199 201 202 199 197 204 216 225 229 230 228 228 229 230 232 236 238 237 238 238 234 228 224 223 221 215 207 206 210 210 210 219 219 203 199 214 225 222 222 230 232 230 232 235 236 239 241 240 237 233 230 229 232 234 234 233 233 236 239 238 233 229 231 235 239 241 241 240 240 242 244 246 248 250 252 253 254 255 256 257 258 259 260 260
186 189 194 194 194 198 200 204 213 223 226 228 230 230 231 233 236 237 240 242 240 239 239 237 231 223 216 213 210 205 204 210 212 206 205 213 212 208 216 222 223 227 236 237 234 234 236 239 242 243 240 235 232 229 227 228 230 230 231 233 236 237 235 233 232 234 236 238 239 239 238 238 239 242 244 246 247 249 252 254 257 260 263 265 268 270 271
188 191 194 192 191 195 200 208 218 224 226 228 232 233 237 244 248 246 246 249 246 238 231 225 219 213 205 202 204 203 204 210 215 209 196 198 211 220 221 220 219 224 233 237 237 238 241 243 242 239 233 228 225 223 223 224 224 225 227 229 231 231 230 230 232 234 236 237 236 236 239 241 242 245 248 251 253 256 259 262 266 271 275 278 281 283 284
191 192 194 193 192 195 201 209 219 227 232 238 243 248 255 267 276 258 237 240 240 226 207 194 189 189 189 193 200 204 204 208 214 214 206 201 207 215 217 217 220 227 235 241 244 245 245 243 240 238 234 228 220 217 217 217 217 220 224 226 227 228 228 229 232 236 238 237 236 237 240 243 245 248 252 256 260 263 266 269 274 278 280 283 285 286 287
194 193 195 195 196 202 209 215 221 231 240 244 251 253 247 240 232 211 204 208 210 205 195 188 183 178 178 185 194 200 202 204 210 214 214 213 215 217 217 219 223 228 235 242 247 250 251 249 244 238 231 223 217 214 214 214 214 216 219 220 222 224 225 227 231 235 236 237 237 238 241 244 247 251 254 257 260 264 267 270 274 276 279 281 283 283 284
194 194 199 202 205 212 217 218 220 227 221 209 223 219 201 197 201 200 195 194 194 192 192 189 185 178 177 182 188 193 199 202 206 211 216 220 226 226 223 223 226 231 237 244 251 258 266 264 243 227 218 212 210 210 210 211 212 213 213 213 215 218 221 225 230 233 236 239 244 248 250 253 254 255 255 256 259 262 266 269 272 275 277 278 279 279 280
197 198 203 206 210 216 217 212 213 217 215 216 223 217 206 205 206 199 192 192 190 186 189 193 188 181 179 182 184 188 195 200 203 208 212 217 222 223 220 222 231 238 245 254 262 269 276 235 211 211 208 205 204 204 205 208 208 207 207 207 209 211 216 221 224 228 233 239 245 250 253 255 256 256 256 258 260 263 267 269 271 273 273 274 275 277 279
199 204 208 209 210 211 208 206 211 217 217 221 224 215 209 214 212 201 197 201 196 184 186 201 199 191 185 184 186 191 197 199 201 205 209 213 218 222 222 228 239 247 254 266 281 285 260 206 199 202 203 202 201 199 198 200 201 200 199 199 200 203 207 209 213 221 230 237 242 247 251 253 255 256 257 259 261 265 267 269 269 269 271 273 275 277 278
202 209 213 212 209 203 197 198 204 206 208 216 220 212 209 216 212 204 205 209 202 195 199 207 205 199 189 184 187 198 205 201 199 205 211 214 219 225 231 237 245 255 266 279 289 280 238 211 205 203 202 202 201 197 193 193 194 194 194 195 195 198 202 208 218 229 236 240 244 249 252 253 254 255 256 259 262 265 266 267 268 271 274 275 276 277 280
209 214 215 212 207 201 196 197 199 198 202 210 214 210 211 217 217 214 213 207 200 202 208 203 196 194 190 185 188 198 204 201 203 211 217 218 221 228 235 241 251 265 279 281 269 240 210 206 205 200 200 203 202 197 192 191 193 195 197 199 201 206 213 224 234 241 245 248 250 253 254 254 256 257 259 261 264 266 267 270 273 276 276 276 278 280 282
216 218 216 210 204 202 202 201 200 200 204 208 210 208 208 211 211 209 206 197 194 204 213 202 188 191 196 194 195 200 203 202 206 214 220 222 226 231 238 248 261 272 272 263 249 223 201 201 201 196 195 200 202 197 192 191 194 199 203 207 211 218 228 239 247 253 255 256 256 257 258 260 262 265 266 266 268 269 272 275 277 277 277 278 280 282 283
Height
3161 3160 3159 3158 3157 3156 3156 3155 3154 3153 3152 3151 3150 3150 3150 3151 3151 3151 3151 3151 3151 3151 3151 3151 3151 3152 3153 3152 3152 3152 3152 3151 3151 3151 3151 3152 3151 3151 3151 3151 3151 3151 3151 3151 3151 3151 3151 3151 3151 3151 3150 3150 3150 3150 3150 3149 3149 3148 3147 3147 3146 3146 3145 3144 3144 3143 3145 3147 3148 3147 3147 3145 3144 3143 3142 3142 3143 3141 3140 3140 3140 3139 3139 3138 3137 3137 3137
3159 3158 3157 3156 3155 3154 3154 3153 3152 3151 3150 3150 3149 3149 3149 3150 3151 3150 3150 3150 3150 3150 3151 3150 3150 3150 3150 3150 3150 3150 3150 3150 3150 3150 3150 3151 3150 3150 3150 3150 3150 3150 3150 3150 3150 3151 3151 3151 3151 3151 3150 3150 3150 3149 3149 3149 3148 3148 3147 3147 3146 3146 3145 3144 3143 3143 3144 3147 3147 3146 3146 3145 3144 3144 3143 3142 3142 3140 3139 3139 3138 3138 3138 3137 3137 3137 3137
3156 3155 3155 3154 3153 3152 3151 3151 3151 3150 3149 3148 3148 3148 3148 3149 3149 3149 3149 3149 3149 3149 3149 3149 3148 3148 3148 3148 3149 3149 3149 3148 3148 3148 3149 3149 3149 3149 3149 3149 3149 3149 3149 3149 3150 3150 3150 3150 3151 3150 3150 3150 3150 3149 3149 3148 3148 3147 3147 3147 3146 3146 3145 3145 3143 3144 3146 3149 3149 3147 3146 3146 3146 3145 3144 3142 3141 3139 3138 3137 3137 3136 3136 3136 3136 3137 3137
3153 3153 3152 3151 3151 3150 3149 3149 3149 3148 3147 3147 3146 3146 3147 3147 3148 3148 3148 3148 3148 3148 3148 3147 3148 3148 3147 3147 3148 3148 3148 3147 3147 3148 3148 3148 3148 3148 3148 3148 3148 3148 3148 3148 3149 3149 3149 3150 3150 3150 3150 3150 3149 3149 3148 3148 3148 3147 3147 3147 3146 3146 3145 3144 3143 3143 3144 3145 3147 3148 3147 3147 3146 3145 3144 3142 3141 3139 3138 3137 3136 3135 3135 3136 3136 3136 3137
3150 3149 3149 3149 3148 3148 3147 3146 3146 3146 3145 3145 3145 3145 3145 3145 3146 3146 3147 3147 3147 3147 3147 3147 3147 3147 3147 3147 3147 3147 3147 3147 3147 3147 3147 3147 3147 3146 3146 3146 3147 3147 3147 3148 3148 3148 3149 3149 3149 3149 3149 3148 3148 3148 3148 3147 3147 3147 3146 3146 3146 3145 3145 3145 3143 3143 3142 3142 3144 3147 3147 3146 3146 3145 3144 3143 3141 3139 3138 3136 3136 3135 3135 3136 3136 3136 3136
3147 3146 3145 3145 3145 3145 3144 3143 3143 3143 3142 3142 3142 3143 3143 3143 3143 3144 3145 3145 3145 3145 3146 3145 3146 3147 3147 3146 3146 3146 3145 3145 3146 3146 3146 3146 3145 3145 3145 3145 3146 3146 3146 3147 3147 3148 3148 3148 3148 3148 3147 3147 3147 3146 3146 3146 3146 3146 3146 3145 3145 3145 3145 3145 3143 3143 3143 3142 3142 3144 3145 3146 3145 3145 3145 3143 3141 3140 3138 3137 3136 3136 3135 3136 3136 3135 3136
3144 3143 3142 3142 3141 3141 3141 3140 3140 3140 3140 3140 3140 3140 3140 3140 3140 3141 3142 3142 3143 3143 3144 3144 3145 3145 3146 3146 3145 3144 3143 3143 3143 3144 3144 3144 3144 3144 3144 3144 3145 3145 3145 3146 3146 3147 3147 3147 3147 3147 3147 3146 3146 3145 3145 3145 3145 3145 3145 3145 3145 3145 3145 3145 3143 3142 3142 3142 3142 3143 3144 3144 3145 3145 3144 3144 3143 3141 3139 3138 3137 3136 3135 3136 3136 3136 3136
3141 3140 3139 3139 3138 3138 3138 3138 3137 3137 3137 3137 3137 3138 3138 3138 3138 3138 3139 3140 3140 3141 3142 3142 3143 3143 3144 3144 3143 3143 3142 3141 3141 3141 3142 3143 3143 3143 3143 3143 3144 3144 3144 3144 3145 3145 3145 3146 3146 3146 3146 3146 3146 3145 3145 3145 3144 3145 3145 3144 3145 3145 3145 3144 3143 3142 3143 3143 3143 3143 3143 3143 3144 3144 3144 3144 3144 3143 3142 3140 3138 3137 3137 3137 3137 3137 3138
3139 3138 3137 3136 3136 3136 3136 3135 3135 3134 3134 3135 3135 3135 3135 3135 3135 3136 3136 3137 3138 3138 3139 3140 3140 3141 3141 3142 3142 3141 3141 3142 3141 3140 3141 3141 3141 3141 3142 3142 3143 3143 3143 3143 3143 3143 3144 3144 3144 3144 3145 3146 3146 3145 3145 3145 3144 3144 3144 3144 3144 3144 3144 3144 3144 3143 3143 3144 3144 3144 3144 3143 3143 3143 3142 3142 3143 3144 3143 3141 3139 3139 3138 3138 3139 3139 3139
3137 3136 3135 3134 3134 3133 3133 3133 3132 3132 3132 3132 3133 3133 3133 3133 3133 3133 3133 3134 3135 3136 3137 3137 3138 3138 3139 3139 3140 3140 3140 3140 3140 3139 3140 3140 3141 3141 3141 3141 3142 3142 3141 3141 3142 3142 3143 3143 3142 3143 3144 3145 3145 3145 3145 3145 3144 3144 3144 3144 3144 3144 3144 3144 3144 3143 3143 3144 3144 3144 3143 3143 3142 3141 3141 3141 3142 3144 3144 3142 3140 3139 3139 3139 3139 3139 3139
3135 3134 3133 3132 3132 3131 3131 3130 3130 3130 3130 3130 3130 3130 3131 3131 3130 3130 3130 3130 3132 3133 3134 3134 3135 3136 3136 3137 3138 3139 3138 3139 3139 3139 3139 3140 3140 3140 3140 3140 3140 3140 3140 3140 3140 3141 3141 3141 3141 3142 3142 3143 3143 3144 3144 3144 3144 3144 3144 3143 3143 3143 3143 3144 3143 3143 3143 3143 3143 3143 3143 3142 3141 3140 3140 3140 3142 3143 3144 3142 3140 3139 3139 3139 3139 3139 3139
3133 3132 3131 3130 3130 3129 3128 3128 3128 3128 3128 3128 3128 3128 3128 3129 3128 3128 3128 3127 3128 3130 3131 3132 3132 3133 3134 3135 3136 3138 3137 3137 3137 3137 3138 3138 3138 3138 3138 3139 3139 3139 3139 3139 3139 3139 3140 3140 3140 3140 3141 3141 3141 3142 3143 3143 3143 3143 3143 3143 3143 3143 3143 3143 3142 3142 3142 3142 3142 3143 3142 3140 3139 3140 3140 3140 3141 3143 3143 3142 3140 3139 3139 3139 3138 3139 3139
3131 3130 3129 3129 3128 3127 3126 3126 3126 3126 3126 3126 3126 3126 3126 3126 3126 3126 3125 3125 3126 3127 3128 3129 3130 3130 3131 3132 3134 3136 3136 3136 3136 3136 3136 3136 3137 3137 3137 3138 3138 3138 3138 3138 3138 3138 3138 3138 3138 3139 3139 3139 3140 3141 3142 3142 3143 3142 3142 3142 3142 3142 3142 3142 3142 3141 3141 3141 3141 3141 3140 3139 3139 3139 3139 3139 3140 3142 3142 3142 3141 3139 3139 3139 3138 3138 3138
3129 3128 3128 3127 3126 3125 3124 3124 3123 3123 3123 3123 3123 3124 3124 3124 3124 3123 3123 3123 3123 3124 3125 3126 3127 3128 3128 3130 3132 3134 3135 3134 3134 3134 3134 3135 3135 3136 3136 3137 3137 3137 3137 3137 3137 3136 3136 3137 3137 3138 3139 3138 3139 3140 3141 3141 3141 3141 3141 3141 3141 3141 3141 3141 3141 3140 3140 3140 3139 3139 3140 3139 3139 3139 3138 3139 3140 3140 3141 3142 3141 3140 3139 3139 3139 3138 3138
3127 3126 3126 3125 3124 3123 3123 3122 3121 3121 3121 3121 3121 3121 3122 3122 3122 3121 3121 3121 3121 3122 3123 3123 3124 3125 3126 3127 3129 3131 3132 3132 3132 3132 3133 3133 3134 3135 3135 3136 3136 3136 3136 3136 3136 3136 3136 3136 3137 3138 3138 3138 3138 3139 3139 3140 3140 3139 3139 3140 3140 3141 3141 3140 3140 3139 3139 3139 3139 3140 3141 3139 3138 3138 3138 3139 3139 3140 3141 3142 3141 3140 3139 3139 3138 3138 3138
3124 3124 3123 3123 3122 3122 3121 3120 3120 3119 3119 3119 3119 3119 3119 3120 3120 3119 3119 3118 3119 3120 3121 3121 3122 3122 3123 3125 3127 3129 3130 3130 3130 3131 3131 3132 3133 3133 3134 3135 3135 3135 3135 3135 3135 3134 3135 3136 3137 3137 3138 3138 3138 3138 3138 3138 3138 3138 3138 3139 3139 3140 3140 3140 3139 3139 3138 3138 3138 3139 3139 3138 3138 3138 3139 3139 3140 3140 3141 3141 3141 3140 3139 3139 3138 3138 3138
3121 3121 3121 3120 3120 3119 3119 3118 3118 3117 3117 3117 3116 3116 3116 3117 3117 3117 3117 3116 3117 3118 3119 3119 3119 3120 3121 3123 3125 3126 3127 3128 3129 3129 3130 3131 3131 3132 3133 3133 3134 3134 3134 3133 3133 3133 3133 3135 3136 3137 3137 3137 3137 3137 3137 3137 3137 3137 3138 3138 3138 3139 3139 3139 3139 3138 3138 3138 3138 3137 3138 3137 3138 3138 3139 3139 3140 3140 3141 3141 3141 3140 3139 3139 3138 3138 3138
3117 3118 3118 3117 3117 3117 3116 3116 3116 3115 3115 3115 3114 3114 3113 3114 3115 3114 3114 3114 3114 3116 3117 3117 3117 3118 3119 3120 3122 3123 3125 3126 3127 3128 3129 3129 3130 3131 3131 3132 3132 3133 3132 3132 3132 3132 3133 3134 3135 3136 3136 3137 3137 3136 3136 3136 3136 3136 3137 3137 3138 3138 3138 3138 3138 3138 3138 3137 3137 3137 3137 3137 3137 3138 3139 3139 3140 3140 3140 3140 3140 3140 3140 3139 3138 3138 3138
3113 3114 3114 3114 3113 3113 3113 3113 3113 3113 3113 3113 3112 3111 3111 3111 3112 3112 3112 3112 3112 3114 3115 3114 3114 3115 3116 3118 3120 3121 3122 3123 3125 3126 3127 3128 3129 3130 3130 3130 3131 3131 3131 3131 3132 3132 3133 3133 3134 3135 3135 3136 3136 3136 3135 3135 3135 3136 3136 3136 3137 3137 3137 3137 3137 3137 3137 3137 3137 3137 3136 3137 3137 3137 3138 3138 3138 3138 3138 3139 3139 3139 3139 3139 3138 3138 3138
3109 3109 3110 3110 3110 3110 3110 3109 3109 3110 3110 3110 3110 3109 3108 3108 3109 3109 3109 3109 3109 3111 3113 3112 3111 3112 3113 3115 3118 3119 3120 3121 3122 3123 3124 3125 3126 3128 3128 3128 3128 3129 3130 3131 3131 3132 3132 3133 3134 3134 3135 3135 3135 3135 3135 3135 3135 3135 3135 3135 3136 3136 3137 3137 3137 3137 3137 3137 3137 3136 3136 3136 3137 3137 3137 3137 3137 3137 3137 3138 3139 3139 3139 3139 3139 3138 3138
3105 3105 3106 3106 3106 3106 3106 3106 3106 3106 3107 3107 3107 3107 3105 3105 3106 3106 3106 3106 3107 3108 3109 3109 3108 3109 3111 3113 3115 3116 3117 3118 3119 3121 3122 3123 3123 3125 3126 3126 3126 3128 3129 3130 3130 3131 3131 3132 3133 3134 3134 3134 3134 3135 3134 3134 3134 3134 3134 3134 3135 3135 3136 3136 3136 3136 3136 3136 3136 3136 3136 3136 3136 3136 3136 3136 3136 3136 3137 3138 3138 3138 3138 3138 3138 3138 3139
3101 3101 3102 3102 3102 3102 3102 3102 3102 3102 3103 3104 3104 3104 3103 3102 3102 3102 3103 3103 3104 3105 3106 3106 3106 3107 3109 3111 3113 3114 3114 3116 3117 3118 3120 3120 3121 3122 3124 3125 3125 3126 3127 3128 3129 3129 3130 3131 3132 3133 3133 3133 3133 3134 3134 3134 3134 3133 3134 3134 3134 3134 3134 3135 3135 3136 3136 3136 3136 3136 3135 3135 3135 3135 3135 3135 3135 3135 3136 3136 3137 3137 3138 3138 3138 3138 3138
3097 3097 3098 3098 3098 3098 3098 3098 3099 3099 3100 3100 3101 3101 3100 3099 3098 3099 3100 3100 3100 3102 3103 3103 3103 3104 3106 3108 3109 3111 3112 3113 3115 3116 3117 3118 3119 3120 3122 3123 3124 3125 3126 3127 3128 3129 3129 3130 3131 3132 3132 3132 3132 3133 3133 3133 3133 3133 3133 3133 3133 3133 3134 3134 3135 3135 3136 3135 3135 3135 3135 3135 3135 3135 3135 3134 3134 3135 3135 3136 3136 3137 3137 3137 3137 3138 3138
3093 3094 3094 3094 3095 3095 3095 3095 3095 3096 3097 3097 3098 3098 3097 3096 3095 3096 3096 3096 3097 3098 3100 3100 3100 3102 3103 3105 3106 3108 3110 3111 3112 3114 3114 3116 3117 3118 3120 3121 3123 3124 3125 3126 3127 3128 3128 3129 3130 3131 3131 3131 3131 3132 3132 3132 3132 3132 3132 3132 3132 3133 3133 3134 3134 3135 3135 3135 3135 3135 3135 3134 3134 3134 3135 3135 3135 3135 3135 3135 3136 3136 3137 3137 3137 3138 3138
3090 3090 3090 3091 3091 3091 3092 3092 3092 3093 3093 3094 3094 3095 3094 3094 3093 3093 3093 3093 3094 3095 3096 3097 3098 3099 3100 3101 3104 3106 3108 3109 3110 3111 3112 3114 3115 3116 3118 3120 3121 3123 3123 3124 3125 3127 3127 3128 3128 3129 3130 3130 3130 3131 3131 3131 3131 3131 3131 3132 3132 3132 3132 3133 3133 3134 3135 3135 3135 3135 3134 3134 3134 3135 3135 3135 3135 3135 3136 3136 3136 3136 3137 3138 3138 3138 3139
3086 3086 3087 3087 3087 3088 3088 3089 3089 3090 3090 3091 3091 3091 3091 3091 3090 3090 3090 3090 3091 3092 3093 3094 3096 3096 3096 3098 3101 3103 3105 3107 3108 3109 3110 3112 3112 3114 3116 3119 3120 3121 3122 3122 3123 3125 3126 3127 3127 3128 3128 3129 3129 3130 3130 3130 3130 3130 3130 3131 3131 3132 3132 3132 3133 3134 3134 3134 3135 3135 3135 3135 3135 3135 3135 3136 3136 3136 3137 3137 3137 3137 3138 3138 3139 3139 3140
3082 3083 3083 3084 3084 3084 3085 3086 3086 3087 3087 3088 3088 3088 3088 3087 3087 3087 3087 3087 3089 3090 3090 3091 3093 3093 3094 3096 3098 3100 3102 3104 3106 3107 3109 3110 3111 3112 3115 3117 3118 3119 3120 3120 3121 3123 3124 3125 3126 3126 3127 3128 3128 3128 3129 3129 3129 3129 3129 3129 3130 3131 3131 3132 3132 3133 3134 3134 3135 3135 3135 3135 3135 3135 3136 3136 3137 3137 3138 3138 3138 3138 3139 3140 3140 3141 3141
3079 3079 3080 3080 3081 3081 3082 3082 3083 3084 3084 3085 3085 3085 3085 3084 3083 3083 3084 3085 3087 3088 3088 3089 3090 3091 3091 3093 3095 3097 3100 3102 3104 3105 3107 3108 3109 3111 3114 3115 3116 3117 3118 3119 3120 3121 3122 3123 3124 3125 3125 3126 3127 3127 3127 3128 3128 3128 3128 3128 3129 3130 3131 3131 3132 3133 3133 3134 3135 3135 3135 3135 3136 3136 3137 3137 3137 3138 3139 3139 3139 3140 3140 3141 3141 3142 3142
3075 3076 3076 3077 3077 3078 3079 3080 3080 3081 3081 3082 3082 3082 3081 3081 3081 3081 3082 3083 3084 3085 3086 3087 3088 3089 3089 3091 3093 3095 3098 3100 3101 3103 3105 3107 3108 3110 3112 3113 3114 3115 3116 3117 3118 3119 3120 3121 3122 3123 3123 3124 3125 3126 3126 3126 3127 3127 3127 3128 3128 3129 3130 3131 3131 3132 3133 3134 3135 3135 3136 3136 3136 3137 3137 3137 3138 3138 3139 3140 3140 3141 3141 3141 3142 3143 3143
3072 3073 3073 3074 3074 3075 3076 3077 3077 3078 3079 3079 3079 3079 3079 3079 3079 3079 3080 3081 3082 3083 3084 3085 3086 3087 3088 3089 3091 3093 3095 3097 3099 3101 3103 3105 3107 3108 3110 3111 3112 3113 3114 3115 3116 3117 3118 3119 3120 3121 3122 3122 3123 3124 3124 3125 3125 3126 3126 3127 3127 3128 3129 3130 3131 3131 3132 3133 3134 3135 3135 3136 3137 3137 3137 3138 3138 3139 3139 3140 3140 3141 3141 3142 3142 3143 3143
3069 3070 3070 3071 3072 3073 3073 3074 3075 3076 3076 3077 3077 3077 3077 3077 3077 3078 3079 3080 3080 3081 3082 3082 3083 3085 3086 3088 3089 3091 3093 3095 3098 3099 3101 3103 3105 3107 3108 3109 3110 3111 3112 3113 3114 3115 3116 3117 3118 3119 3120 3121 3121 3122 3123 3123 3124 3124 3125 3126 3127 3127 3128 3129 3130 3130 3131 3132 3133 3133 3134 3135 3136 3137 3137 3138 3138 3138 3139 3139 3140 3140 3141 3141 3142 3143 3143
3066 3067 3067 3068 3069 3070 3071 3072 3073 3073 3074 3074 3075 3075 3075 3076 3076 3077 3077 3078 3078 3079 3080 3081 3082 3084 3085 3086 3087 3089 3091 3094 3096 3097 3099 3101 3103 3104 3106 3107 3108 3109 3110 3111 3112 3113 3114 3115 3116 3117 3118 3119 3120 3120 3121 3122 3122 3123 3124 3125 3126 3126 3127 3128 3128 3129 3130 3131 3131 3132 3133 3134 3135 3136 3137 3137 3138 3138 3138 3139 3139 3140 3140 3141 3142 3142 3142
3063 3064 3064 3065 3067 3068 3069 3070 3071 3071 3072 3072 3072 3073 3074 3075 3075 3076 3076 3076 3077 3077 3078 3079 3081 3082 3084 3085 3086 3088 3090 3093 3095 3096 3097 3098 3100 3102 3104 3105 3106 3107 3108 3109 3110 3111 3112 3113 3114 3115 3116 3117 3117 3118 3119 3120 3121 3122 3123 3124 3124 3125 3126 3126 3127 3128 3129 3129 3130 3131 3131 3132 3133 3135 3135 3136 3136 3137 3137 3138 3139 3139 3140 3140 3141 3141 3142
3060 3061 3062 3063 3065 3066 3067 3068 3069 3069 3069 3070 3070 3071 3072 3073 3074 3074 3075 3075 3075 3076 3077 3078 3079 3081 3083 3084 3085 3087 3089 3091 3092 3094 3095 3096 3098 3100 3101 3102 3103 3104 3106 3107 3108 3109 3110 3111 3112 3113 3114 3115 3115 3116 3117 3118 3119 3120 3121 3122 3123 3124 3124 3125 3126 3127 3127 3128 3129 3130 3130 3131 3132 3132 3133 3134 3135 3136 3136 3137 3138 3138 3139 3139 3140 3140 3141
3058 3059 3060 3061 3062 3064 3065 3066 3066 3067 3067 3068 3069 3070 3071 3072 3072 3073 3073 3073 3074 3075 3076 3077 3078 3080 3082 3083 3084 3086 3088 3089 3091 3092 3093 3094 3095 3098 3099 3100 3101 3103 3104 3105 3107 3108 3109 3109 3110 3111 3112 3112 3113 3114 3115 3117 3118 3118 3119 3120 3121 3122 3123 3124 3124 3125 3126 3127 3127 3128 3129 3129 3130 3131 3132 3133 3134 3135 3136 3136 3137 3138 3138 3138 3139 3139 3140
3056 3057 3058 3059 3061 3062 3063 3064 3064 3065 3066 3067 3068 3069 3069 3070 3070 3071 3071 3072 3073 3074 3074 3076 3077 3079 3080 3082 3083 3085 3086 3087 3089 3090 3092 3093 3094 3096 3097 3098 3099 3101 3102 3103 3105 3106 3107 3107 3108 3109 3110 3110 3110 3112 3113 3115 3116 3116 3117 3118 3119 3120 3121 3122 3123 3123 3124 3125 3126 3126 3127 3128 3129 3130 3131 3131 3132 3133 3134 3135 3136 3137 3137 3138 3138 3139 3139
3054 3055 3056 3057 3059 3060 3061 3062 3063 3063 3064 3065 3066 3067 3068 3069 3069 3069 3070 3071 3071 3072 3073 3074 3076 3077 3079 3081 3082 3083 3085 3086 3087 3089 3090 3091 3093 3094 3095 3097 3098 3100 3101 3102 3103 3104 3105 3106 3106 3107 3107 3107 3109 3111 3112 3113 3114 3114 3115 3116 3117 3118 3119 3120 3120 3121 3122 3123 3124 3125 3126 3127 3127 3128 3129 3130 3131 3132 3133 3134 3135 3135 3136 3137 3137 3138 3138
3052 3053 3054 3056 3058 3059 3060 3061 3062 3063 3063 3064 3065 3066 3067 3067 3068 3068 3069 3069 3070 3071 3072 3073 3074 3076 3077 3079 3081 3082 3083 3084 3086 3087 3088 3089 3090 3092 3094 3095 3096 3097 3099 3100 3101 3102 3103 3104 3104 3104 3105 3106 3107 3109 3110 3111 3112 3113 3113 3114 3115 3116 3117 3118 3118 3119 3120 3121 3122 3123 3124 3125 3126 3127 3128 3129 3130 3131 3132 3132 3133 3133 3134 3135 3135 3136 3136
3050 3052 3053 3055 3056 3057 3058 3060 3061 3062 3062 3063 3064 3065 3065 3066 3066 3066 3067 3068 3068 3069 3070 3071 3073 3075 3076 3078 3080 3081 3082 3083 3084 3085 3086 3087 3088 3089 3091 3093 3094 3095 3096 3097 3098 3100 3101 3101 3101 3102 3102 3103 3105 3107 3108 3109 3110 3111 3112 3113 3114 3115 3115 3116 3117 3118 3118 3119 3120 3121 3122 3123 3124 3125 3126 3127 3128 3129 3130 3130 3131 3131 3132 3132 3133 3133 3134
3049 3051 3052 3054 3055 3056 3058 3059 3060 3060 3061 3062 3063 3063 3064 3064 3065 3065 3066 3066 3067 3068 3069 3070 3072 3074 3075 3077 3078 3079 3080 3081 3082 3083 3084 3086 3087 3088 3090 3091 3092 3093 3094 3095 3096 3097 3098 3099 3099 3099 3099 3101 3103 3104 3106 3107 3108 3109 3110 3111 3112 3113 3114 3115 3116 3116 3117 3117 3118 3119 3120 3121 3122 3123 3124 3125 3126 3127 3128 3129 3129 3130 3130 3130 3131 3131 3131
3048 3050 3051 3053 3054 3056 3057 3058 3058 3059 3060 3061 3062 3062 3062 3063 3063 3064 3064 3064 3065 3066 3067 3068 3070 3072 3073 3075 3077 3078 3079 3081 3081 3082 3083 3084 3086 3087 3089 3090 3091 3092 3093 3094 3095 3095 3096 3096 3095 3095 3096 3099 3101 3102 3104 3105 3106 3108 3109 3110 3111 3112 3113 3114 3114 3115 3116 3116 3117 3118 3119 3120 3121 3121 3122 3123 3124 3125 3126 3127 3127 3128 3128 3129 3129 3129 3129
3048 3049 3051 3052 3054 3055 3056 3057 3058 3058 3059 3060 3060 3061 3061 3061 3062 3062 3062 3063 3064 3065 3065 3067 3069 3070 3072 3074 3075 3077 3079 3080 3080 3081 3082 3082 3084 3086 3087 3088 3089 3091 3092 3092 3093 3093 3093 3092 3092 3092 3094 3097 3099 3100 3101 3103 3104 3106 3107 3108 3109 3110 3111 3112 3113 3113 3114 3115 3116 3117 3118 3118 3119 3120 3121 3122 3123 3124 3124 3125 3125 3126 3126 3127 3127 3127 3127
3047 3049 3050 3052 3053 3054 3055 3056 3057 3058 3058 3059 3059 3059 3060 3060 3060 3060 3061 3061 3062 3063 3064 3065 3067 3068 3070 3071 3073 3075 3077 3078 3078 3079 3080 3081 3082 3084 3086 3087 3087 3089 3090 3090 3090 3090 3089 3088 3089 3090 3093 3095 3096 3097 3099 3101 3102 3104 3105 3106 3107 3108 3109 3110 3111 3112 3113 3113 3114 3115 3116 3117 3117 3118 3119 3120 3121 3122 3122 3123 3123 3123 3124 3124 3124 3124 3124
3046 3048 3049 3050 3052 3053 3054 3055 3056 3056 3057 3057 3057 3058 3058 3058 3058 3059 3060 3060 3061 3062 3063 3064 3065 3067 3068 3070 3071 3073 3074 3076 3077 3078 3079 3080 3081 3083 3084 3085 3086 3087 3087 3087 3087 3087 3086 3086 3087 3089 3091 3093 3093 3095 3097 3098 3100 3101 3103 3104 3105 3106 3107 3108 3109 3110 3111 3111 3112 3113 3114 3115 3115 3116 3117 3118 3119 3119 3120 3120 3120 3120 3120 3120 3120 3120 3120
3045 3047 3048 3049 3050 3052 3053 3054 3054 3054 3055 3055 3056 3056 3057 3057 3058 3058 3059 3059 3059 3060 3061 3062 3063 3065 3067 3069 3070 3071 3073 3075 3076 3078 3079 3079 3080 3081 3082 3083 3084 3085 3085 3085 3085 3084 3084 3084 3086 3088 3089 3090 3091 3093 3094 3096 3098 3099 3100 3102 3103 3104 3105 3106 3107 3108 3109 3110 3111 3112 3112 3113 3114 3114 3115 3116 3116 3116 3117 3117 3117 3117 3117 3117 3117 3117 3116
3044 3046 3047 3048 3049 3050 3051 3052 3052 3053 3054 3054 3054 3055 3055 3056 3056 3057 3057 3058 3058 3059 3059 3060 3062 3063 3065 3067 3069 3070 3072 3073 3075 3076 3078 3079 3080 3081 3081 3082 3083 3083 3083 3083 3082 3082 3082 3083 3085 3086 3087 3088 3089 3090 3092 3094 3095 3097 3098 3100 3101 3102 3104 3105 3106 3107 3107 3108 3109 3110 3111 3111 3112 3112 3113 3113 3114 3114 3114 3115 3115 3115 3115 3115 3114 3114 3114
3043 3044 3046 3047 3048 3049 3050 3051 3052 3053 3053 3053 3053 3053 3053 3054 3054 3054 3055 3056 3057 3058 3059 3060 3061 3062 3064 3066 3067 3069 3071 3073 3074 3075 3077 3078 3080 3080 3080 3081 3081 3081 3081 3080 3080 3080 3081 3082 3083 3084 3085 3086 3087 3088 3090 3092 3093 3095 3096 3098 3099 3101 3102 3103 3104 3105 3106 3106 3107 3108 3108 3109 3109 3110 3111 3111 3112 3112 3112 3112 3112 3112 3112 3112 3112 3111 3111
3042 3043 3044 3046 3047 3047 3049 3050 3051 3051 3052 3052 3052 3052 3052 3053 3053 3054 3055 3056 3056 3057 3058 3059 3060 3061 3063 3065 3066 3068 3069 3071 3073 3074 3075 3077 3078 3078 3078 3079 3078 3078 3078 3078 3078 3079 3080 3081 3081 3082 3083 3084 3085 3087 3088 3090 3091 3093 3094 3096 3098 3099 3101 3102 3102 3103 3104 3104 3105 3106 3106 3107 3108 3108 3109 3109 3110 3110 3110 3110 3110 3110 3109 3109 3109 3108 3108
3040 3042 3043 3044 3045 3046 3048 3049 3049 3050 3050 3051 3051 3051 3052 3053 3053 3054 3055 3056 3056 3057 3058 3059 3059 3061 3062 3064 3065 3067 3068 3069 3071 3072 3073 3074 3075 3075 3076 3076 3076 3076 3076 3077 3078 3078 3079 3080 3080 3081 3082 3083 3084 3086 3087 3088 3090 3092 3093 3095 3097 3098 3099 3100 3101 3102 3102 3103 3103 3104 3104 3105 3106 3107 3107 3107 3107 3107 3107 3107 3107 3107 3107 3106 3106 3106 3105
3039 3040 3042 3043 3044 3046 3047 3047 3048 3049 3049 3050 3050 3051 3052 3052 3053 3054 3055 3055 3056 3057 3057 3058 3059 3060 3062 3063 3065 3066 3066 3067 3069 3070 3071 3071 3072 3073 3074 3073 3074 3074 3075 3077 3077 3078 3078 3078 3079 3080 3081 3082 3083 3084 3086 3087 3089 3091 3092 3094 3096 3097 3098 3099 3100 3100 3101 3101 3102 3102 3103 3104 3104 3105 3105 3105 3105 3105 3105 3104 3104 3104 3104 3103 3103 3102 3102
3038 3039 3041 3042 3044 3045 3046 3046 3047 3048 3048 3049 3050 3050 3051 3052 3053 3054 3054 3054 3055 3056 3057 3058 3059 3060 3061 3062 3063 3064 3065 3066 3067 3068 3068 3069 3070 3071 3071 3071 3072 3074 3075 3076 3076 3077 3077 3078 3078 3079 3080 3081 3082 3083 3085 3086 3088 3090 3091 3093 3095 3096 3097 3098 3098 3099 3099 3100 3100 3101 3101 3102 3102 3102 3102 3102 3102 3102 3102 3101 3101 3101 3101 3100 3100 3100 3099
3037 3038 3040 3041 3043 3044 3044 3045 3046 3047 3048 3048 3049 3050 3050 3051 3052 3053 3053 3053 3053 3054 3055 3057 3058 3059 3060 3061 3062 3063 3064 3064 3065 3066 3066 3067 3068 3069 3069 3070 3072 3073 3074 3074 3075 3076 3076 3077 3077 3078 3079 3080 3081 3082 3084 3085 3087 3089 3090 3092 3093 3095 3096 3096 3097 3097 3097 3098 3098 3099 3099 3099 3099 3099 3099 3099 3099 3099 3099 3098 3098 3098 3098 3097 3097 3097 3096